KA5FVT Weather Reports


Display with metric or nautical units.
time (UTC)temp
F
wind
direction
speed
MPH
gust
MPH
rain 1hr
in
rain 24hr
in
rain mn
in
humidity
%
barometer
mb
20210619155455 87 220 0.0 0.0 0.00 0.00 0.00 65 1012.2
20210619154955 87 220 0.0 0.0 0.00 0.00 0.00 65 1012.4
20210619154455 87 220 0.0 0.0 0.00 0.00 0.00 68 1012.3
20210619153955 86 220 0.0 0.0 0.00 0.00 0.00 69 1012.4
20210619153455 86 220 0.0 0.0 0.00 0.00 0.00 70 1012.4
20210619152956 85 220 0.0 0.0 0.00 0.00 0.00 69 1012.3
20210619152455 85 220 0.0 0.0 0.00 0.00 0.00 73 1012.3
20210619151955 84 220 0.0 0.0 0.00 0.00 0.00 71 1012.3
20210619151456 84 220 0.0 0.0 0.00 0.00 0.00 72 1012.3
20210619150955 84 220 0.0 1.0 0.00 0.00 0.00 72 1012.3
20210619150455 84 220 0.0 1.0 0.00 0.00 0.00 73 1012.3
20210619145955 83 220 0.0 0.0 0.00 0.00 0.00 72 1012.3
20210619145455 83 220 0.0 1.0 0.00 0.00 0.00 74 1012.4
20210619144955 83 220 0.0 0.0 0.00 0.00 0.00 74 1012.5
20210619144455 82 220 0.0 0.0 0.00 0.00 0.00 75 1012.5
20210619143955 82 220 0.0 1.0 0.00 0.00 0.00 76 1012.4
20210619143456 82 220 0.0 0.0 0.00 0.00 0.00 77 1012.4
20210619142955 81 220 0.0 0.0 0.00 0.00 0.00 77 1012.5
20210619142455 81 220 0.0 0.0 0.00 0.00 0.00 78 1012.5
20210619141955 81 221 0.0 0.0 0.00 0.00 0.00 79 1012.4
20210619141456 81 221 0.0 0.0 0.00 0.00 0.00 79 1012.4
20210619140955 80 221 0.0 0.0 0.00 0.00 0.00 80 1012.4
20210619140455 80 221 0.0 0.0 0.00 0.00 0.00 80 1012.4
20210619135956 80 221 0.0 0.0 0.00 0.00 0.00 81 1012.4
20210619135456 79 221 0.0 0.0 0.00 0.00 0.00 82 1012.3
20210619134955 79 221 0.0 0.0 0.00 0.00 0.00 82 1012.3
20210619134455 79 221 0.0 0.0 0.00 0.00 0.00 83 1012.3
20210619133955 78 221 0.0 0.0 0.00 0.00 0.00 83 1012.3
20210619133455 78 221 0.0 0.0 0.00 0.00 0.00 83 1012.2
20210619132955 78 221 0.0 0.0 0.00 0.00 0.00 83 1012.1
20210619132456 77 221 0.0 0.0 0.00 0.00 0.00 84 1012.0
20210619131956 77 221 0.0 0.0 0.00 0.00 0.00 85 1012.0
20210619131455 77 221 0.0 0.0 0.00 0.00 0.00 84 1011.9
20210619130955 77 221 0.0 1.0 0.00 0.00 0.00 85 1011.9
20210619130455 77 221 0.0 0.0 0.00 0.00 0.00 87 1011.8
20210619125955 76 221 0.0 1.0 0.00 0.00 0.00 87 1011.7
20210619125455 76 186 0.0 0.0 0.00 0.00 0.00 87 1011.7
20210619124955 76 186 0.0 0.0 0.00 0.00 0.00 88 1011.5
20210619124456 76 186 0.0 0.0 0.00 0.00 0.00 87 1011.5
20210619123955 76 186 0.0 0.0 0.00 0.00 0.00 88 1011.6
20210619123455 75 186 0.0 0.0 0.00 0.00 0.00 88 1011.5
20210619122955 75 186 0.0 0.0 0.00 0.00 0.00 89 1011.3
20210619122455 75 186 0.0 0.0 0.00 0.00 0.00 89 1011.3
20210619121955 75 186 0.0 0.0 0.00 0.00 0.00 88 1011.2
20210619121455 75 186 0.0 0.0 0.00 0.00 0.00 88 1011.2
20210619120956 75 186 0.0 0.0 0.00 0.00 0.00 88 1011.1
20210619120455 75 186 0.0 0.0 0.00 0.00 0.00 88 1011.0
20210619115955 75 186 0.0 0.0 0.00 0.00 0.00 88 1010.9
20210619115455 75 186 0.0 0.0 0.00 0.00 0.00 88 1010.8
20210619114955 75 186 0.0 0.0 0.00 0.00 0.00 88 1010.8
20210619114455 75 186 0.0 0.0 0.00 0.00 0.00 88 1010.7
20210619113955 75 186 0.0 0.0 0.00 0.00 0.00 88 1010.9
20210619113456 75 186 0.0 0.0 0.00 0.00 0.00 87 1010.8
20210619112955 76 186 0.0 0.0 0.00 0.00 0.00 88 1010.8
20210619112455 76 186 0.0 0.0 0.00 0.00 0.00 88 1010.7
20210619111955 76 186 0.0 0.0 0.00 0.00 0.00 88 1010.7
20210619111455 76 186 0.0 0.0 0.00 0.00 0.00 87 1010.7
20210619110955 76 186 0.0 0.0 0.00 0.00 0.00 86 1010.6
20210619110455 76 186 0.0 0.0 0.00 0.00 0.00 86 1010.5
20210619105956 76 186 0.0 0.0 0.00 0.00 0.00 86 1010.4
20210619105455 76 186 0.0 0.0 0.00 0.00 0.00 85 1010.2
20210619104955 76 186 0.0 0.0 0.00 0.00 0.00 85 1010.1
20210619104455 76 186 0.0 0.0 0.00 0.00 0.00 85 1010.1
20210619103955 76 186 0.0 0.0 0.00 0.00 0.00 85 1010.0
20210619103455 76 186 0.0 0.0 0.00 0.00 0.00 85 1009.9
20210619102955 76 186 0.0 0.0 0.00 0.00 0.00 85 1009.8
20210619102456 76 186 0.0 0.0 0.00 0.00 0.00 85 1009.9
20210619101955 76 186 0.0 0.0 0.00 0.00 0.00 84 1009.8
20210619101455 77 186 0.0 0.0 0.00 0.00 0.00 84 1009.8
20210619100955 77 186 0.0 0.0 0.00 0.00 0.00 84 1009.9
20210619100455 77 186 0.0 0.0 0.00 0.00 0.00 84 1009.9
20210619095955 77 186 0.0 0.0 0.00 0.00 0.00 84 1009.9
20210619095455 77 186 0.0 0.0 0.00 0.00 0.00 83 1009.9
20210619094956 77 186 0.0 0.0 0.00 0.00 0.00 83 1009.8
20210619094455 77 186 0.0 0.0 0.00 0.00 0.00 82 1009.8
20210619093955 77 186 0.0 0.0 0.00 0.00 0.00 82 1009.9
20210619093455 77 186 0.0 0.0 0.00 0.00 0.00 82 1009.9
20210619092955 77 186 0.0 0.0 0.00 0.00 0.00 82 1010.0
20210619092455 77 186 0.0 0.0 0.00 0.00 0.00 82 1010.0
20210619091955 78 186 0.0 0.0 0.00 0.00 0.00 82 1010.0
20210619091456 78 186 0.0 0.0 0.00 0.00 0.00 81 1009.9
20210619090955 78 186 0.0 0.0 0.00 0.00 0.00 81 1010.0
20210619090455 78 186 0.0 0.0 0.00 0.00 0.00 81 1010.0
20210619085955 78 186 0.0 0.0 0.00 0.00 0.00 81 1009.9
20210619085455 78 186 0.0 0.0 0.00 0.00 0.00 80 1010.0
20210619084955 78 186 0.0 0.0 0.00 0.00 0.00 81 1010.1
20210619084455 78 186 0.0 0.0 0.00 0.00 0.00 81 1009.9
20210619083956 78 186 0.0 0.0 0.00 0.00 0.00 81 1010.0
20210619083455 79 186 0.0 0.0 0.00 0.00 0.00 81 1010.1
20210619082955 79 186 0.0 0.0 0.00 0.00 0.00 80 1010.1
20210619082455 79 186 0.0 0.0 0.00 0.00 0.00 79 1010.2
20210619081955 79 186 0.0 0.0 0.00 0.00 0.00 79 1010.1
20210619081455 79 186 0.0 0.0 0.00 0.00 0.00 78 1010.2
20210619080955 79 186 0.0 0.0 0.00 0.00 0.00 78 1010.2
20210619080456 79 186 0.0 0.0 0.00 0.00 0.00 77 1010.2
20210619075955 79 186 0.0 0.0 0.00 0.00 0.00 77 1010.2
20210619075455 79 186 0.0 0.0 0.00 0.00 0.00 76 1010.4
20210619074955 80 186 0.0 0.0 0.00 0.00 0.00 76 1010.5
20210619074455 80 186 0.0 0.0 0.00 0.00 0.00 76 1010.4
20210619073955 80 186 0.0 0.0 0.00 0.00 0.00 76 1010.3
20210619073455 80 186 0.0 0.0 0.00 0.00 0.00 76 1010.5
20210619072956 80 186 0.0 0.0 0.00 0.00 0.00 75 1010.5
20210619072455 80 186 0.0 0.0 0.00 0.00 0.00 75 1010.5
20210619071955 80 186 0.0 0.0 0.00 0.00 0.00 76 1010.5
20210619071455 80 186 0.0 0.0 0.00 0.00 0.00 75 1010.6
20210619070955 80 186 0.0 0.0 0.00 0.00 0.00 76 1010.8
20210619070455 80 186 0.0 0.0 0.00 0.00 0.00 76 1010.8
20210619065955 80 186 0.0 0.0 0.00 0.00 0.00 76 1010.8
20210619065456 81 186 0.0 0.0 0.00 0.00 0.00 76 1010.9
20210619064955 81 186 0.0 0.0 0.00 0.00 0.00 75 1010.9
20210619064455 81 186 0.0 0.0 0.00 0.00 0.00 74 1010.9
20210619063955 81 186 0.0 0.0 0.00 0.00 0.00 74 1010.9
20210619063455 81 186 0.0 0.0 0.00 0.00 0.00 74 1010.9
20210619062956 81 186 0.0 0.0 0.00 0.00 0.00 74 1011.0
20210619062455 81 186 0.0 0.0 0.00 0.00 0.00 73 1011.2
20210619061956 81 186 0.0 0.0 0.00 0.00 0.00 73 1011.2
20210619061455 81 186 0.0 0.0 0.00 0.00 0.00 73 1011.2
20210619060956 81 186 0.0 0.0 0.00 0.00 0.00 73 1011.2
20210619060455 81 186 0.0 0.0 0.00 0.00 0.00 73 1011.2
20210619055955 81 186 0.0 0.0 0.00 0.00 0.00 72 1011.1
20210619055455 81 186 0.0 0.0 0.00 0.00 0.00 72 1011.2
20210619054955 81 186 0.0 0.0 0.00 0.00 0.00 72 1011.3
20210619054456 81 186 0.0 0.0 0.00 0.00 0.00 72 1011.5
20210619053955 81 186 0.0 0.0 0.00 0.00 0.00 71 1011.4
20210619053455 81 186 0.0 0.0 0.00 0.00 0.00 70 1011.5
20210619052955 81 186 0.0 0.0 0.00 0.00 0.00 71 1011.5
20210619052455 81 186 0.0 0.0 0.00 0.00 0.00 71 1011.5
20210619051955 81 186 0.0 0.0 0.00 0.00 0.00 71 1011.5
20210619051455 81 186 0.0 0.0 0.00 0.00 0.00 70 1011.5
20210619050956 81 186 0.0 0.0 0.00 0.00 0.00 70 1011.6
20210619050455 82 186 0.0 0.0 0.00 0.00 0.00 70 1011.6
20210619045955 82 186 0.0 0.0 0.00 0.00 0.00 70 1011.4
20210619045455 82 186 0.0 0.0 0.00 0.00 0.00 70 1011.5
20210619044955 82 186 0.0 0.0 0.00 0.00 0.00 70 1011.5
20210619044455 82 186 0.0 0.0 0.00 0.00 0.00 69 1011.4
20210619043955 82 186 0.0 0.0 0.00 0.00 0.00 69 1011.4
20210619043456 82 186 0.0 0.0 0.00 0.00 0.00 70 1011.5
20210619042955 82 186 0.0 0.0 0.00 0.00 0.00 70 1011.5
20210619042455 82 186 0.0 0.0 0.00 0.00 0.00 69 1011.5
20210619041955 82 186 0.0 0.0 0.00 0.00 0.00 68 1011.4
20210619041455 82 186 0.0 0.0 0.00 0.00 0.00 69 1011.4
20210619040956 82 186 0.0 0.0 0.00 0.00 0.00 69 1011.3
20210619040455 83 186 0.0 0.0 0.00 0.00 0.00 69 1011.2
20210619035955 83 186 0.0 0.0 0.00 0.00 0.00 68 1011.3
20210619035455 83 186 0.0 0.0 0.00 0.00 0.00 67 1011.2
20210619034955 83 186 0.0 0.0 0.00 0.00 0.00 67 1011.3
20210619034455 83 186 0.0 0.0 0.00 0.00 0.00 66 1011.2
20210619033956 83 186 0.0 0.0 0.00 0.00 0.00 66 1011.1
20210619033455 83 186 0.0 0.0 0.00 0.00 0.00 66 1011.3
20210619032955 83 186 0.0 0.0 0.00 0.00 0.00 65 1011.3
20210619032455 83 186 0.0 0.0 0.00 0.00 0.00 65 1011.2
20210619031955 83 186 0.0 0.0 0.00 0.00 0.00 66 1011.2
20210619031455 84 186 0.0 0.0 0.00 0.00 0.00 65 1011.2
20210619030955 84 186 0.0 0.0 0.00 0.00 0.00 64 1011.1
20210619030455 84 186 0.0 0.0 0.00 0.00 0.00 64 1011.0
20210619025956 84 186 0.0 0.0 0.00 0.00 0.00 64 1010.9
20210619025455 84 186 0.0 0.0 0.00 0.00 0.00 64 1010.8
20210619024955 84 186 0.0 0.0 0.00 0.00 0.00 64 1010.8
20210619024455 84 186 0.0 0.0 0.00 0.00 0.00 63 1010.8
20210619023955 84 186 0.0 0.0 0.00 0.00 0.00 62 1010.9
20210619023456 85 186 0.0 0.0 0.00 0.00 0.00 62 1010.8
20210619022955 85 186 0.0 0.0 0.00 0.00 0.00 62 1010.8
20210619022455 85 186 0.0 0.0 0.00 0.00 0.00 63 1010.6
20210619021955 85 186 0.0 0.0 0.00 0.00 0.00 61 1010.6
20210619021455 85 186 0.0 0.0 0.00 0.00 0.00 61 1010.6
20210619020955 85 186 0.0 0.0 0.00 0.00 0.00 61 1010.6
20210619020456 85 186 0.0 0.0 0.00 0.00 0.00 60 1010.6
20210619015955 86 186 0.0 0.0 0.00 0.00 0.00 60 1010.6
20210619015455 86 186 0.0 0.0 0.00 0.00 0.00 59 1010.7
20210619014955 86 186 0.0 0.0 0.00 0.00 0.00 59 1010.5
20210619014455 86 186 0.0 0.0 0.00 0.00 0.00 58 1010.4
20210619013956 86 186 0.0 0.0 0.00 0.00 0.00 58 1010.4
20210619013456 87 186 0.0 0.0 0.00 0.00 0.00 58 1010.3
20210619012955 87 186 0.0 0.0 0.00 0.00 0.00 57 1010.3
20210619012455 87 186 0.0 0.0 0.00 0.00 0.00 57 1010.3
20210619011955 87 186 0.0 0.0 0.00 0.00 0.00 56 1010.3
20210619011455 88 186 0.0 0.0 0.00 0.00 0.00 56 1010.3
20210619010955 88 186 0.0 0.0 0.00 0.00 0.00 56 1010.3
20210619010456 88 186 0.0 0.0 0.00 0.00 0.00 56 1010.3
20210619005955 88 186 0.0 0.0 0.00 0.00 0.00 55 1010.3
20210619005455 89 186 0.0 0.0 0.00 0.00 0.00 55 1010.3
20210619004955 89 186 0.0 0.0 0.00 0.00 0.00 55 1010.2
20210619004455 89 186 0.0 0.0 0.00 0.00 0.00 54 1010.2
20210619003955 89 186 0.0 0.0 0.00 0.00 0.00 53 1010.1
20210619003455 89 186 0.0 1.0 0.00 0.00 0.00 53 1010.2
20210619002955 90 186 0.0 1.0 0.00 0.00 0.00 52 1010.3
20210619002456 90 186 0.0 0.0 0.00 0.00 0.00 53 1010.2
20210619001955 90 186 0.0 0.0 0.00 0.00 0.00 51 1010.2
20210619001455 91 186 0.0 1.0 0.00 0.00 0.00 50 1010.2
20210619000955 91 186 0.0 0.0 0.00 0.00 0.00 51 1010.2
20210619000455 91 186 0.0 0.0 0.00 0.00 0.00 51 1010.2
20210618235956 92 186 0.0 0.0 0.00 0.00 0.00 49 1010.2
20210618235455 92 186 0.0 0.0 0.00 0.00 0.00 49 1010.1
20210618234955 92 186 0.0 0.0 0.00 0.00 0.00 50 1010.1
20210618234455 92 186 0.0 0.0 0.00 0.00 0.00 48 1010.0
20210618233955 92 186 0.0 0.0 0.00 0.00 0.00 49 1010.0
20210618233455 93 186 0.0 0.0 0.00 0.00 0.00 49 1010.1
20210618232956 93 186 0.0 1.0 0.00 0.00 0.00 48 1010.1
20210618232455 93 186 0.0 2.0 0.00 0.00 0.00 46 1010.0
20210618231955 93 186 0.0 1.0 0.00 0.00 0.00 45 1010.0
20210618231455 93 186 0.0 0.0 0.00 0.00 0.00 47 1010.1
20210618230955 92 186 0.0 1.0 0.00 0.00 0.00 49 1010.2
20210618230455 92 186 0.0 1.0 0.00 0.00 0.00 48 1010.2
20210618225956 92 186 0.0 1.0 0.00 0.00 0.00 47 1010.2
20210618225455 92 192 0.0 1.0 0.00 0.00 0.00 47 1010.2
20210618224956 92 191 0.0 0.0 0.00 0.00 0.00 46 1010.3
20210618224455 93 191 0.0 0.0 0.00 0.00 0.00 47 1010.4
20210618223955 93 191 0.0 0.0 0.00 0.00 0.00 46 1010.5
20210618223455 93 191 0.0 1.0 0.00 0.00 0.00 46 1010.5
20210618222955 93 191 0.0 1.0 0.00 0.00 0.00 49 1010.5
20210618222455 92 191 0.0 1.0 0.00 0.00 0.00 47 1010.5
20210618221955 92 192 0.0 2.0 0.00 0.00 0.00 46 1010.5
20210618221456 92 121 0.0 0.0 0.00 0.00 0.00 44 1010.5
20210618220956 92 121 0.0 0.0 0.00 0.00 0.00 44 1010.5
20210618220455 93 121 0.0 1.0 0.00 0.00 0.00 45 1010.7
20210618215955 93 46 1.0 2.0 0.00 0.00 0.00 47 1010.7
20210618215455 93 46 1.0 2.0 0.00 0.00 0.00 44 1010.7
20210618214956 93 259 1.0 1.0 0.00 0.00 0.00 46 1010.7
20210618214455 92 259 1.0 2.0 0.00 0.00 0.00 47 1010.7
20210618213955 92 263 1.0 1.0 0.00 0.00 0.00 46 1010.7
20210618213455 92 263 0.0 2.0 0.00 0.00 0.00 45 1010.8
20210618212955 92 205 1.0 1.0 0.00 0.00 0.00 46 1010.8
20210618212455 92 204 0.0 1.0 0.00 0.00 0.00 44 1010.9
20210618211955 92 204 0.0 3.0 0.00 0.00 0.00 44 1011.0
20210618211455 92 204 0.0 0.0 0.00 0.00 0.00 44 1011.0
20210618210956 92 203 0.0 0.0 0.00 0.00 0.00 42 1011.0
20210618210455 92 203 0.0 0.0 0.00 0.00 0.00 44 1011.2
20210618205955 92 203 0.0 1.0 0.00 0.00 0.00 45 1011.2
20210618205455 92 203 0.0 2.0 0.00 0.00 0.00 43 1011.3
20210618204955 92 204 2.0 2.0 0.00 0.00 0.00 45 1011.2
20210618204455 93 300 1.0 3.0 0.00 0.00 0.00 43 1011.3
20210618203955 93 284 0.0 2.0 0.00 0.00 0.00 45 1011.3
20210618203456 93 0 1.0 1.0 0.00 0.00 0.00 45 1011.3
20210618202955 93 192 0.0 0.0 0.00 0.00 0.00 43 1011.5
20210618202455 93 198 0.0 2.0 0.00 0.00 0.00 44 1011.5
20210618201955 93 194 1.0 4.0 0.00 0.00 0.00 42 1011.7
20210618201455 93 208 0.0 1.0 0.00 0.00 0.00 41 1011.6
20210618200955 93 208 0.0 3.0 0.00 0.00 0.00 47 1011.6
20210618200455 93 267 0.0 2.0 0.00 0.00 0.00 45 1011.6
20210618195956 93 267 0.0 1.0 0.00 0.00 0.00 44 1011.8
20210618195455 93 267 0.0 3.0 0.00 0.00 0.00 46 1011.9
20210618194956 93 177 0.0 1.0 0.00 0.00 0.00 44 1011.8
20210618194455 92 177 1.0 1.0 0.00 0.00 0.00 45 1011.8
20210618193955 92 177 1.0 2.0 0.00 0.00 0.00 44 1011.8
20210618193456 92 169 2.0 2.0 0.00 0.00 0.00 45 1011.8
20210618192955 92 171 0.0 1.0 0.00 0.00 0.00 45 1012.0
20210618192455 92 156 0.0 1.0 0.00 0.00 0.00 45 1012.0
20210618191955 92 155 1.0 1.0 0.00 0.00 0.00 45 1012.0
20210618191455 92 152 0.0 2.0 0.00 0.00 0.00 42 1012.1
20210618190955 92 152 0.0 1.0 0.00 0.00 0.00 43 1012.1
20210618190455 92 151 0.0 1.0 0.00 0.00 0.00 46 1012.1
20210618185955 92 152 0.0 1.0 0.00 0.00 0.00 44 1012.2
20210618185456 92 152 0.0 2.0 0.00 0.00 0.00 45 1012.3
20210618184955 92 152 1.0 4.0 0.00 0.00 0.00 43 1012.3
20210618184455 92 180 0.0 0.0 0.00 0.00 0.00 46 1012.2
20210618183955 91 180 0.0 2.0 0.00 0.00 0.00 45 1012.2
20210618183455 91 180 0.0 0.0 0.00 0.00 0.00 50 1012.4
20210618182956 91 180 0.0 2.0 0.00 0.00 0.00 43 1012.3
20210618182455 92 241 0.0 2.0 0.00 0.00 0.00 46 1012.3
20210618181955 91 186 1.0 2.0 0.00 0.00 0.00 45 1012.5
20210618181455 91 186 0.0 1.0 0.00 0.00 0.00 44 1012.4
20210618180955 91 186 0.0 2.0 0.00 0.00 0.00 48 1012.5
20210618180455 91 186 1.0 2.0 0.00 0.00 0.00 46 1012.6
20210618175956 91 186 2.0 3.0 0.00 0.00 0.00 49 1012.8
20210618175455 91 179 0.0 1.0 0.00 0.00 0.00 48 1012.9
20210618174955 91 179 0.0 2.0 0.00 0.00 0.00 44 1012.8
20210618174455 91 43 1.0 2.0 0.00 0.00 0.00 45 1012.9
20210618173955 91 188 0.0 2.0 0.00 0.00 0.00 43 1013.0
20210618173455 91 182 1.0 1.0 0.00 0.00 0.00 46 1013.0
20210618172955 91 187 0.0 0.0 0.00 0.00 0.00 44 1013.1
20210618172455 91 187 0.0 1.0 0.00 0.00 0.00 45 1013.1
20210618171956 91 187 0.0 2.0 0.00 0.00 0.00 46 1013.1
20210618171455 91 186 0.0 2.0 0.00 0.00 0.00 47 1013.2
20210618170955 91 113 0.0 3.0 0.00 0.00 0.00 41 1013.2
20210618170455 91 191 0.0 2.0 0.00 0.00 0.00 44 1013.1
20210618165955 91 151 0.0 2.0 0.00 0.00 0.00 43 1013.3
20210618165455 90 147 0.0 2.0 0.00 0.00 0.00 45 1013.3
20210618164955 90 175 0.0 2.0 0.00 0.00 0.00 46 1013.4
20210618164456 90 171 1.0 1.0 0.00 0.00 0.00 46 1013.4
20210618163955 89 172 0.0 1.0 0.00 0.00 0.00 45 1013.3
20210618163455 89 172 0.0 1.0 0.00 0.00 0.00 47 1013.3
20210618162955 89 172 0.0 1.0 0.00 0.00 0.00 47 1013.3
20210618162455 88 172 0.0 2.0 0.00 0.00 0.00 48 1013.5
20210618161955 88 182 1.0 3.0 0.00 0.00 0.00 46 1013.6
20210618161456 88 184 1.0 2.0 0.00 0.00 0.00 48 1013.6
20210618160956 87 184 1.0 1.0 0.00 0.00 0.00 50 1013.5
20210618160455 87 184 0.0 2.0 0.00 0.00 0.00 48 1013.8
20210618155955 86 182 0.0 1.0 0.00 0.00 0.00 50 1013.7